Regional Weather Roundup
Issued by NWS

Home | Current Version | Previous Version | Graphics & Text | Print | Product List | Glossary On
Versions: 1 2 3 4 5 6 7 8 9 10 11 12 13 14 15 16 17 18 19 20 21 22 23 24 25 26 27 28 29 30 31 32 33 34 35 36 37 38 39 40 41 42 43 44 45 46 47 48 49 50
000
ASUS43 KBIS 250510
RWRND

NORTH DAKOTA REGIONAL WEATHER ROUNDUP
NATIONAL WEATHER SERVICE BISMARCK ND
1100 PM CST FRI NOV 24 2017

NOTE: "FAIR" INDICATES FEW OR NO CLOUDS BELOW 12,000 FEET WITH NO
SIGNIFICANT WEATHER AND/OR OBSTRUCTIONS TO VISIBILITY.


NDZ001>003-009>011-017-250600-
NORTHWEST NORTH DAKOTA

CITY           SKY/WX    TMP DP  RH WIND       PRES   REMARKS
WILLISTON      CLEAR     38  27  64 W15       29.88R
MINOT          CLEAR     32  27  81 SW10      29.86R
MINOT AFB      CLEAR     29  27  91 W8        29.85R
$$

NDZ018>021-031>035-040>046-250600-
SOUTHWEST NORTH DAKOTA

CITY           SKY/WX    TMP DP  RH WIND       PRES   REMARKS
BISMARCK       CLEAR     40  30  67 NW10      29.89R
DICKINSON      CLEAR     32  25  75 W10       29.90R
GARRISON         N/A     32  28  85 W7        29.88R
HETTINGER ARPT CLEAR     25  21  85 NW7       29.96R WCI  17
$$

NDZ004>008-012>016-024-026-027-054-250600-
NORTHEAST NORTH DAKOTA

CITY           SKY/WX    TMP DP  RH WIND       PRES   REMARKS
GRAND FORKS    PTCLDY    29  25  85 N14       29.83R WCI  18
GRND FRKS AFB  MOCLDY    29  26  90 N12       29.83R WCI  19
DEVILS LAKE    CLEAR     32  29  88 NW8       29.85R
$$

NDZ022-023-025-028>030-036>039-047>053-250600-
SOUTHEAST NORTH DAKOTA

CITY           SKY/WX    TMP DP  RH WIND       PRES   REMARKS
FARGO          CLOUDY    37  31  78 NW13      29.81R
JAMESTOWN      CLEAR     34  29  82 NW10      29.85R
$$




USA.gov is the U.S. government's official web portal to all federal, state and local government web resources and services.